H1 CPF 2 NER 2025 10 24 9 297 01 glonass132 H2 1401201 9132 39620 2025 10 24 0 0 0 2025 10 27 23 45 0 900 1 1 0 0 0 1 H9 10 0 60972 0.00000 0 2415536.095 17973599.746 17979122.420 10 0 60972 900.00000 0 1920350.341 19996659.377 15766866.393 10 0 60972 1800.00000 0 1645637.352 21768757.353 13249401.865 10 0 60972 2700.00000 0 1559024.964 23236278.099 10475438.521 10 0 60972 3600.00000 0 1618874.581 24355031.192 7498648.597 10 0 60972 4500.00000 0 1776262.537 25092005.882 4376640.178 10 0 60972 5400.00000 0 1977272.395 25426679.688 1169853.775 10 0 60972 6300.00000 0 2165502.084 25351826.376 -2059597.542 10 0 60972 7200.00000 0 2284680.676 24873789.139 -5249122.778 10 0 60972 8100.00000 0 2281284.675 24012206.794 -8336859.909 10 0 60972 9000.00000 0 2107043.327 22799203.419 -11262872.069 10 0 60972 9900.00000 0 1721226.774 21278074.168 -13970309.951 10 0 60972 10800.00000 0 1092619.550 19501521.111 -16406517.849 10 0 60972 11700.00000 0 201094.741 17529511.784 -18524061.663 10 0 60972 12600.00000 0 -961279.348 15426849.143 -20281658.514 10 0 60972 13500.00000 0 -2389648.864 13260553.863 -21644989.399 10 0 60972 14400.00000 0 -4066327.659 11097167.996 -22587378.487 10 0 60972 15300.00000 0 -5961298.615 9000092.611 -23090325.108 10 0 60972 16200.00000 0 -8033244.421 7027070.751 -23143877.257 10 0 60972 17100.00000 0 -10231066.801 5227921.241 -22746838.476 10 0 60972 18000.00000 0 -12495832.297 3642618.497 -21906803.146 10 0 60972 18900.00000 0 -14763064.451 2299799.065 -20640018.575 10 0 60972 19800.00000 0 -16965287.166 1215757.701 -18971075.745 10 0 60972 20700.00000 0 -19034712.912 393975.146 -16932434.028 10 0 60972 21600.00000 0 -20905962.877 -174802.846 -14563788.725 10 0 60972 22500.00000 0 -22518704.368 -511939.193 -11911293.550 10 0 60972 23400.00000 0 -23820093.908 -649759.308 -9026653.509 10 0 60972 24300.00000 0 -24766922.513 -629934.861 -5966106.438 10 0 60972 25200.00000 0 -25327372.241 -501467.525 -2789313.998 10 0 60972 26100.00000 0 -25482309.636 -318359.975 441814.924 10 0 60972 27000.00000 0 -25226061.644 -137074.812 3664344.070 10 0 60972 27900.00000 0 -24566641.763 -13891.058 6815547.661 10 0 60972 28800.00000 0 -23525417.841 -2271.980 9834140.711 10 0 60972 29700.00000 0 -22136236.771 -150357.138 12661476.761 10 0 60972 30600.00000 0 -20444044.420 -498685.799 15242689.022 10 0 60972 31500.00000 0 -18503060.279 -1078248.454 17527752.474 10 0 60972 32400.00000 0 -16374584.811 -1908948.770 19472446.580 10 0 60972 33300.00000 0 -14124532.338 -2998540.529 21039200.726 10 0 60972 34200.00000 0 -11820793.181 -4342083.744 22197807.175 10 0 60972 35100.00000 0 -9530535.111 -5921942.233 22925989.215 10 0 60972 36000.00000 0 -7317555.899 -7708322.298 23209815.164 10 0 60972 36900.00000 0 -5239795.956 -9660329.692 23043951.818 10 0 60972 37800.00000 0 -3347112.760 -11727500.878 22431753.892 10 0 60972 38700.00000 0 -1679407.513 -13851745.185 21385188.859 10 0 60972 39600.00000 0 -265179.693 -15969617.773 19924599.353 10 0 60972 40500.00000 0 879432.610 -18014829.968 18078308.022 10 0 60972 41400.00000 0 1751088.665 -19920893.829 15882072.288 10 0 60972 42300.00000 0 2359140.867 -21623792.285 13378398.999 10 0 60972 43200.00000 0 2724995.963 -23064565.041 10615731.378 10 0 60972 44100.00000 0 2880969.244 -24191703.650 7647522.857 10 0 60972 45000.00000 0 2868680.099 -24963256.695 4531214.613 10 0 60972 45900.00000 0 2737056.277 -25348557.657 1327135.416 10 0 60972 46800.00000 0 2540030.515 -25329503.253 -1902655.974 10 0 60972 47700.00000 0 2334026.182 -24901328.357 -5095564.255 10 0 60972 48600.00000 0 2175337.575 -24072844.207 -8189664.395 10 0 60972 49500.00000 0 2117515.279 -22866128.777 -11124898.857 10 0 60972 50400.00000 0 2208867.118 -21315680.860 -13844242.142 10 0 60972 51300.00000 0 2490180.734 -19467071.834 -16294810.042 10 0 60972 52200.00000 0 2992764.930 -17375150.002 -18428891.892 10 0 60972 53100.00000 0 3736893.827 -15101871.355 -20204885.375 10 0 60972 54000.00000 0 4730721.243 -12713846.290 -21588115.244 10 0 60972 54900.00000 0 5969713.158 -10279703.971 -22551519.457 10 0 60972 55800.00000 0 7436624.446 -7867383.888 -23076188.631 10 0 60972 56700.00000 0 9102023.181 -5541467.487 -23151747.529 10 0 60972 57600.00000 0 10925342.712 -3360661.268 -22776570.263 10 0 60972 58500.00000 0 12856419.253 -1375536.693 -21957824.074 10 0 60972 59400.00000 0 14837451.947 373378.380 -20711339.917 10 0 60972 60300.00000 0 16805304.188 1857076.704 -19061311.502 10 0 60972 61200.00000 0 18694050.041 3059055.115 -17039827.953 10 0 60972 62100.00000 0 20437658.771 3975763.434 -14686248.737 10 0 60972 63000.00000 0 21972704.198 4616500.483 -12046432.868 10 0 60972 63900.00000 0 23240984.102 5002762.482 -9171837.655 10 0 60972 64800.00000 0 24191938.498 5167072.691 -6118505.165 10 0 60972 65700.00000 0 24784763.982 5151343.349 -2945957.079 10 0 60972 66600.00000 0 24990134.308 5004841.179 283979.188 10 0 60972 67500.00000 0 24791454.263 4781844.664 3508388.819 10 0 60972 68400.00000 0 24185593.993 4539094.418 6664507.147 10 0 60972 69300.00000 0 23183073.281 4333146.603 9690950.919 10 0 60972 70200.00000 0 21807688.897 4217743.131 12528918.160 10 0 60972 71100.00000 0 20095601.824 4241311.147 15123332.606 10 0 60972 72000.00000 0 18093924.047 4444698.278 17423910.133 10 0 60972 72900.00000 0 15858865.409 4859239.507 19386126.741 10 0 60972 73800.00000 0 13453519.182 5505236.963 20972070.095 10 0 60972 74700.00000 0 10945379.539 6390916.118 22151159.226 10 0 60972 75600.00000 0 8403694.646 7511901.491 22900719.982 10 0 60972 76500.00000 0 5896765.118 8851233.171 23206406.705 10 0 60972 77400.00000 0 3489299.220 10379922.868 23062463.598 10 0 60972 78300.00000 0 1239933.136 12058025.967 22471822.194 10 0 60972 79200.00000 0 -800982.702 13836184.886 21446034.186 10 0 60972 80100.00000 0 -2593241.491 15657579.815 20005041.661 10 0 60972 81000.00000 0 -4108207.245 17460206.320 18176789.500 10 0 60972 81900.00000 0 -5329754.168 19179385.988 15996687.258 10 0 60972 82800.00000 0 -6254681.022 20750406.690 13506930.404 10 0 60972 83700.00000 0 -6892584.750 22111183.637 10755693.176 10 0 60972 84600.00000 0 -7265199.792 23204831.331 7796207.575 10 0 60972 85500.00000 0 -7405231.344 23982039.870 4685745.163 10 0 60973 0.00000 0 -7354731.797 24403156.760 1484520.520 10 0 60973 900.00000 0 -7163088.361 24439887.413 -1745465.217 10 0 60973 1800.00000 0 -6884706.381 24076542.218 -4941614.843 10 0 60973 2700.00000 0 -6576485.476 23310777.900 -8041942.917 10 0 60973 3600.00000 0 -6295194.643 22153800.218 -10986273.690 10 0 60973 4500.00000 0 -6094857.040 20630018.248 -13717407.735 10 0 60973 5400.00000 0 -6024255.009 18776162.973 -16182234.390 10 0 60973 6300.00000 0 -6124661.254 16639905.286 -18332768.226 10 0 60973 7200.00000 0 -6427892.912 14278029.498 -20127089.038 10 0 60973 8100.00000 0 -6954771.979 11754237.190 -21530166.634 10 0 60973 9000.00000 0 -7714058.705 9136671.846 -22514553.794 10 0 60973 9900.00000 0 -8701904.869 6495266.705 -23060933.176 10 0 60973 10800.00000 0 -9901852.008 3899025.866 -23158506.751 10 0 60973 11700.00000 0 -11285376.759 1413351.799 -22805219.278 10 0 60973 12600.00000 0 -12812962.227 -902469.245 -22007810.536 10 0 60973 13500.00000 0 -14435651.908 -2997518.808 -20781694.365 10 0 60973 14400.00000 0 -16097021.978 -4831140.540 -19150665.997 10 0 60973 15300.00000 0 -17735489.610 -6374397.870 -17146442.681 10 0 60973 16200.00000 0 -19286860.335 -7611034.028 -14808046.065 10 0 60973 17100.00000 0 -20687006.843 -8537894.542 -12181038.181 10 0 60973 18000.00000 0 -21874565.608 -9164795.154 -9316626.152 10 0 60973 18900.00000 0 -22793536.669 -9513841.872 -6270653.645 10 0 60973 19800.00000 0 -23395675.798 -9618233.422 -3102499.648 10 0 60973 20700.00000 0 -23642577.122 -9520598.528 126092.650 10 0 60973 21600.00000 0 -23507357.506 -9270940.467 3352232.651 10 0 60973 22500.00000 0 -22975871.241 -8924278.059 6513119.587 10 0 60973 23400.00000 0 -22047403.781 -8538085.068 9547274.689 10 0 60973 24300.00000 0 -20734815.764 -8169638.261 12395743.154 10 0 60973 25200.00000 0 -19064132.008 -7873387.773 15003241.792 10 0 60973 26100.00000 0 -17073593.785 -7698461.921 17319229.708 10 0 60973 27000.00000 0 -14812215.237 -7686412.246 19298881.491 10 0 60973 27900.00000 0 -12337905.293 -7869293.781 20903944.757 10 0 60973 28800.00000 0 -9715234.305 -8268160.835 22103466.568 10 0 60973 29700.00000 0 -7012938.782 -8892040.704 22874376.138 10 0 60973 30600.00000 0 -4301267.808 -9737427.430 23201914.196 10 0 60973 31500.00000 0 -1649280.693 -10788315.906 23079902.285 10 0 60973 32400.00000 0 877793.334 -12016774.186 22510848.307 10 0 60973 33300.00000 0 3221025.611 -13384029.725 21505887.382 10 0 60973 34200.00000 0 5329988.301 -14842024.150 20084559.970 10 0 60973 35100.00000 0 7164595.380 -16335372.068 18274431.828 10 0 60973 36000.00000 0 8696510.111 -17803642.916 16110563.045 10 0 60973 36900.00000 0 9910062.537 -19183871.569 13634835.861 10 0 60973 37800.00000 0 10802640.486 -20413193.972 10895153.452 10 0 60973 38700.00000 0 11384539.161 -21431498.737 7944524.084 10 0 60973 39600.00000 0 11678276.410 -22183984.727 4840047.224 10 0 60973 40500.00000 0 11717402.863 -22623518.155 1641820.059 10 0 60973 41400.00000 0 11544856.893 -22712690.666 -1588215.445 10 0 60973 42300.00000 0 11210933.321 -22425491.872 -4787463.476 10 0 60973 43200.00000 0 10770950.994 -21748525.417 -7893880.895 10 0 60973 44100.00000 0 10282717.100 -20681716.385 -10847176.389 10 0 60973 45000.00000 0 9803894.826 -19238478.772 -13589979.164 10 0 60973 45900.00000 0 9389385.362 -17445334.131 -16068954.531 10 0 60973 46800.00000 0 9088834.888 -15340995.340 -18235844.546 10 0 60973 47700.00000 0 8944372.351 -12974951.805 -20048413.129 10 0 60973 48600.00000 0 8988674.342 -10405613.347 -21471276.847 10 0 60973 49500.00000 0 9243439.961 -7698088.609 -22476604.641 10 0 60973 50400.00000 0 9718341.494 -4921689.362 -23044672.136 10 0 60973 51300.00000 0 10410496.811 -2147263.822 -23164258.996 10 0 60973 52200.00000 0 11304487.483 555530.477 -22832880.671 10 0 60973 53100.00000 0 12372923.567 3120900.798 -22056849.097 10 0 60973 54000.00000 0 13577532.721 5489428.782 -20851160.221 10 0 60973 54900.00000 0 14870728.946 7610310.597 -19239209.656 10 0 60973 55800.00000 0 16197595.570 9443233.867 -17252341.275 10 0 60973 56700.00000 0 17498199.114 10959812.723 -14929237.069 10 0 60973 57600.00000 0 18710136.217 12144521.019 -12315159.916 10 0 60973 58500.00000 0 19771205.433 12995084.977 -9461064.267 10 0 60973 59400.00000 0 20622090.102 13522319.641 -6422592.615 10 0 60973 60300.00000 0 21208937.775 13749417.368 -3258978.256 10 0 60973 61200.00000 0 21485725.979 13710720.054 -31877.000 10 0 60973 62100.00000 0 21416313.319 13450028.979 3195847.972 10 0 60973 63000.00000 0 20976088.484 13018525.922 6361362.936 10 0 60973 63900.00000 0 20153147.160 12472395.653 9403096.603 10 0 60973 64800.00000 0 18948947.205 11870252.374 12261944.113 10 0 60973 65700.00000 0 17378414.905 11270480.617 14882417.838 10 0 60973 66600.00000 0 15469498.536 10728604.136 17213722.299 10 0 60973 67500.00000 0 13262188.805 10294794.518 19210732.522 10 0 60973 68400.00000 0 10807048.040 10011624.579 20834857.601 10 0 60973 69300.00000 0 8163310.289 9912160.692 22054773.803 10 0 60973 70200.00000 0 5396631.874 10018473.333 22847014.526 10 0 60973 71100.00000 0 2576585.952 10340627.242 23196407.307 10 0 60973 72000.00000 0 -225995.413 10876192.298 23096351.043 10 0 60973 72900.00000 0 -2941722.462 11610294.473 22548929.564 10 0 60973 73800.00000 0 -5505281.803 12516203.861 21564860.520 10 0 60973 74700.00000 0 -7857896.032 13556434.700 20163281.378 10 0 60973 75600.00000 0 -9949509.042 14684311.321 18371376.994 10 0 60973 76500.00000 0 -11740608.560 15845934.918 16223855.830 10 0 60973 77400.00000 0 -13203612.229 16982469.571 13762284.461 10 0 60973 78300.00000 0 -14323761.397 18032652.809 11034292.372 10 0 60973 79200.00000 0 -15099486.831 18935426.637 8092661.363 10 0 60973 80100.00000 0 -15542232.084 19632579.691 4994316.036 10 0 60973 81000.00000 0 -15675742.505 20071290.487 1799233.745 10 0 60973 81900.00000 0 -15534849.854 20206465.381 -1430705.979 10 0 60973 82800.00000 0 -15163803.407 20002773.016 -4632911.045 10 0 60973 83700.00000 0 -14614217.321 19436289.215 -7745283.126 10 0 60973 84600.00000 0 -13942720.173 18495682.167 -10707417.732 10 0 60973 85500.00000 0 -13208405.234 17182886.603 -13461774.930 10 0 60974 0.00000 0 -12470188.680 15513236.928 -15954797.824 10 0 60974 900.00000 0 -11784186.620 13515050.614 -18137958.198 10 0 60974 1800.00000 0 -11201222.726 11228679.338 -19968705.398 10 0 60974 2700.00000 0 -10764570.692 8705062.366 -21411304.020 10 0 60974 3600.00000 0 -10508028.531 6003842.712 -22437540.143 10 0 60974 4500.00000 0 -10454406.527 3191122.128 -23027283.045 10 0 60974 5400.00000 0 -10614493.938 336947.319 -23168890.446 10 0 60974 6300.00000 0 -10986549.381 -2487368.831 -22859448.508 10 0 60974 7200.00000 0 -11556337.759 -5211979.892 -22104840.975 10 0 60974 8100.00000 0 -12297713.461 -7771178.675 -20919645.147 10 0 60974 9000.00000 0 -13173726.259 -10105898.627 -19326855.865 10 0 60974 9900.00000 0 -14138203.921 -12165939.142 -17357442.101 10 0 60974 10800.00000 0 -15137745.004 -13911821.527 -15049744.319 10 0 60974 11700.00000 0 -16114037.470 -15316197.836 -12448724.106 10 0 60974 12600.00000 0 -17006404.491 -16364753.630 -9605080.894 10 0 60974 13500.00000 0 -17754468.816 -17056567.279 -6574253.527 10 0 60974 14400.00000 0 -18300821.749 -17403911.698 -3415327.043 10 0 60974 15300.00000 0 -18593582.461 -17431508.243 -189867.261 10 0 60974 16200.00000 0 -18588738.076 -17175266.082 3039292.708 10 0 60974 17100.00000 0 -18252164.487 -16680562.312 6209288.855 10 0 60974 18000.00000 0 -17561241.746 -16000137.705 9258460.050 10 0 60974 18900.00000 0 -16505995.464 -15191699.098 12127554.016 10 0 60974 19800.00000 0 -15089716.136 -14315331.562 14760881.246 10 0 60974 20700.00000 0 -13329030.717 -13430831.060 17107394.061 10 0 60974 21600.00000 0 -11253424.015 -12595070.959 19121670.083 10 0 60974 22500.00000 0 -8904230.667 -11859513.635 20764781.711 10 0 60974 23400.00000 0 -6333140.438 -11267971.536 22005035.876 10 0 60974 24300.00000 0 -3600279.596 -10854710.925 22818571.199 10 0 60974 25200.00000 0 -771948.234 -10642976.628 23189802.643 10 0 60974 26100.00000 0 2081892.836 -10643998.158 23111706.651 10 0 60974 27000.00000 0 4890282.182 -10856517.347 22585942.787 10 0 60974 27900.00000 0 7583955.977 -11266855.896 21622810.679 10 0 60974 28800.00000 0 10097974.129 -11849519.020 20241043.927 10 0 60974 29700.00000 0 12374167.506 -12568309.291 18467445.299 10 0 60974 30600.00000 0 14363306.797 -13377903.928 16336370.162 10 0 60974 31500.00000 0 16026904.968 -14225829.770 13889067.660 10 0 60974 32400.00000 0 17338580.203 -15054753.782 11172891.518 10 0 60974 33300.00000 0 18284924.084 -15804993.939 8240394.709 10 0 60974 34200.00000 0 18865839.869 -16417145.972 5148324.338 10 0 60974 35100.00000 0 19094337.409 -16834716.463 1956535.058 10 0 60974 36000.00000 0 18995793.558 -17006652.158 -1273159.037 10 0 60974 36900.00000 0 18606708.940 -16889659.263 -4478172.648 10 0 60974 37800.00000 0 17973012.919 -16450214.852 -7596355.294 10 0 60974 38700.00000 0 17147987.442 -15666184.890 -10567192.235 10 0 60974 39600.00000 0 16189896.540 -14527979.506 -13332977.148 10 0 60974 40500.00000 0 15159420.701 -13039195.131 -15839933.885 10 0 60974 41400.00000 0 14117003.801 -11216714.353 -18039265.344 10 0 60974 42300.00000 0 13120224.202 -9090256.960 -19888108.766 10 0 60974 43200.00000 0 12221300.843 -6701398.470 -21350378.441 10 0 60974 44100.00000 0 11464839.770 -4102094.859 -22397478.894 10 0 60974 45000.00000 0 10885916.677 -1352772.972 -23008873.951 10 0 60974 45900.00000 0 10508577.098 1479935.450 -23172499.862 10 0 60974 46800.00000 0 10344818.396 4325723.031 -22885013.536 10 0 60974 47700.00000 0 10394097.526 7113294.729 -22151870.120 10 0 60974 48600.00000 0 10643386.283 9773102.901 -20987227.462 10 0 60974 49500.00000 0 11067772.525 12240015.524 -19413678.429 10 0 60974 50400.00000 0 11631582.534 14455805.916 -17461815.520 10 0 60974 51300.00000 0 12289977.302 16371359.618 -15169635.750 10 0 60974 52200.00000 0 12990955.029 17948505.775 -12581797.161 10 0 60974 53100.00000 0 13677674.512 19161396.060 -9748741.601 10 0 60974 54000.00000 0 14291000.058 19997373.471 -6725701.420 10 0 60974 54900.00000 0 14772158.872 20457295.013 -3571610.338 10 0 60974 55800.00000 0 15065396.911 20555295.735 -347940.968 10 0 60974 56700.00000 0 15120519.241 20318005.515 2882506.905 10 0 60974 57600.00000 0 14895206.060 19783253.502 6056842.195 10 0 60974 58500.00000 0 14357005.310 18998316.924 9113316.987 10 0 60974 59400.00000 0 13484917.005 18017790.313 11992534.422 10 0 60974 60300.00000 0 12270502.098 16901167.004 14638605.660 10 0 60974 61200.00000 0 10718469.245 15710236.549 17000233.063 10 0 60974 62100.00000 0 8846715.150 14506408.817 19031698.749 10 0 60974 63000.00000 0 6685817.309 13348077.924 20693739.986 10 0 60974 63900.00000 0 4278000.900 12288136.708 21954295.572 10 0 60974 64800.00000 0 1675623.364 11371745.340 22789110.184 10 0 60974 65700.00000 0 -1060760.123 10634446.396 23182186.636 10 0 60974 66600.00000 0 -3864670.044 10100703.762 23126078.913 10 0 60974 67500.00000 0 -6666221.150 9782924.727 22622021.842 10 0 60974 68400.00000 0 -9394782.930 9681004.462 21679896.072 10 0 60974 69300.00000 0 -11981673.135 9782410.373 20318029.894 10 0 60974 70200.00000 0 -14362774.493 10062801.654 18562842.087 10 0 60974 71100.00000 0 -16480968.035 10487157.394 16448332.609 10 0 60974 72000.00000 0 -18288283.917 11011365.722 14015430.530 10 0 60974 72900.00000 0 -19747682.141 11584207.597 11311210.952 10 0 60974 73800.00000 0 -20834390.547 12149652.528 8387995.044 10 0 60974 74700.00000 0 -21536745.407 12649370.514 5302349.420 10 0 60974 75600.00000 0 -21856500.206 13025355.378 2114003.101 10 0 60974 76500.00000 0 -21808589.976 13222549.705 -1115298.080 10 0 60974 77400.00000 0 -21420360.910 13191361.216 -4322978.297 10 0 60974 78300.00000 0 -20730297.166 12889964.484 -7446837.460 10 0 60974 79200.00000 0 -19786297.641 12286290.477 -10426252.958 10 0 60974 80100.00000 0 -18643574.422 11359619.052 -13203354.291 10 0 60974 81000.00000 0 -17362260.534 10101705.758 -15724147.843 10 0 60974 81900.00000 0 -16004826.950 8517393.558 -17939569.819 10 0 60974 82800.00000 0 -14633417.098 6624681.411 -19806446.563 10 0 60974 83700.00000 0 -13307210.762 4454244.308 -21288343.180 10 0 60974 84600.00000 0 -12079928.276 2048422.274 -22356283.405 10 0 60974 85500.00000 0 -10997580.294 -540281.766 -22989326.021 10 0 60975 0.00000 0 -10096558.368 -3251134.403 -23174985.845 10 0 60975 900.00000 0 -9402146.835 -6017456.989 -22909490.239 10 0 60975 1800.00000 0 -8927520.556 -8769165.981 -22197865.021 10 0 60975 2700.00000 0 -8673269.805 -11435467.964 -21053847.543 10 0 60975 3600.00000 0 -8627474.138 -13947593.665 -19499627.308 10 0 60975 4500.00000 0 -8766321.982 -16241458.070 -17565418.654 10 0 60975 5400.00000 0 -9055249.902 -18260134.891 -15288873.212 10 0 60975 6300.00000 0 -9450553.106 -19956041.389 -12714343.340 10 0 60975 7200.00000 0 -9901398.339 -21292741.516 -9892011.047 10 0 60975 8100.00000 0 -10352152.880 -22246291.541 -6876899.872 10 0 60975 9000.00000 0 -10744929.626 -22806071.734 -3727789.872 10 0 60975 9900.00000 0 -11022238.797 -22975069.684 -506058.124 10 0 60975 10800.00000 0 -11129632.285 -22769604.371 2725531.237 10 0 60975 11700.00000 0 -11018227.043 -22218504.108 5904062.367 10 0 60975 12600.00000 0 -10646999.335 -21361774.823 8967702.894 10 0 60975 13500.00000 0 -9984751.847 -20248816.825 11856913.684 10 0 60975 14400.00000 0 -9011669.923 -18936267.214 14515608.833 10 0 60975 15300.00000 0 -7720401.134 -17485560.545 16892242.927 10 0 60975 16200.00000 0 -6116612.859 -15960311.779 18940804.596 10 0 60975 17100.00000 0 -4219004.811 -14423632.279 20621697.772 10 0 60975 18000.00000 0 -2058776.458 -12935491.695 21902494.627 10 0 60975 18900.00000 0 321428.017 -11550235.838 22758547.066 10 0 60975 19800.00000 0 2869053.039 -10314363.322 23173446.574 10 0 60975 20700.00000 0 5523579.497 -9264652.465 23139325.128 10 0 60975 21600.00000 0 8218806.726 -8426714.774 22656992.909 10 0 60975 22500.00000 0 10885374.772 -7814033.484 21735911.339 10 0 60975 23400.00000 0 13453423.590 -7427525.385 20394002.826 10 0 60975 24300.00000 0 15855280.470 -7255642.579 18657301.268 10 0 60975 25200.00000 0 18028065.963 -7275008.650 16559450.022 10 0 60975 26100.00000 0 19916111.877 -7451561.834 14141056.573 10 0 60975 27000.00000 0 21473092.561 -7742156.965 11448915.569 10 0 60975 27900.00000 0 22663782.220 -8096559.100 8535114.200 10 0 60975 28800.00000 0 23465366.109 -8459745.537 5456036.097 10 0 60975 29700.00000 0 23868251.576 -8774419.985 2271281.869 10 0 60975 30600.00000 0 23876345.302 -8983633.677 -957473.923 10 0 60975 31500.00000 0 23506785.002 -9033403.429 -4167668.064 10 0 60975 32400.00000 0 22789136.314 -8875216.415 -7297054.018 10 0 60975 33300.00000 0 21764087.828 -8468315.766 -10284904.389 10 0 60975 34200.00000 0 20481698.139 -7781669.843 -13073187.407 10 0 60975 35100.00000 0 18999267.576 -6795540.925 -15607694.670 10 0 60975 36000.00000 0 17378923.132 -5502585.444 -17839098.099 10 0 60975 36900.00000 0 15685017.312 -3908437.344 -19723915.262 10 0 60975 37800.00000 0 13981449.627 -2031747.562 -21225363.885 10 0 60975 38700.00000 0 12329022.912 96324.654 -22314088.395 10 0 60975 39600.00000 0 10782945.496 2433149.813 -22968743.655 10 0 60975 40500.00000 0 9390584.272 4926154.621 -23176423.796 10 0 60975 41400.00000 0 8189563.386 7514775.035 -22932926.899 10 0 60975 42300.00000 0 7206288.919 10132755.924 -22242849.453 10 0 60975 43200.00000 0 6454962.025 12710702.389 -21119507.787 10 0 60975 44100.00000 0 5937122.427 15178776.766 -19584687.098 10 0 60975 45000.00000 0 5641741.698 17469428.665 -17668222.186 10 0 60975 45900.00000 0 5545862.295 19520043.565 -15407417.507 10 0 60975 46800.00000 0 5615754.958 21275398.573 -12846317.563 10 0 60975 47700.00000 0 5808544.763 22689821.700 -10034841.976 10 0 60975 48600.00000 0 6074235.863 23728963.565 -7027802.604 10 0 60975 49500.00000 0 6358047.695 24371106.741 -3883822.711 10 0 60975 50400.00000 0 6602961.976 24607957.794 -664180.515 10 0 60975 51300.00000 0 6752370.701 24444889.228 2568398.907 10 0 60975 52200.00000 0 6752711.193 23900622.196 5750978.351 10 0 60975 53100.00000 0 6555974.978 23006364.782 8821644.260 10 0 60975 54000.00000 0 6121983.054 21804443.948 11720718.302 10 0 60975 54900.00000 0 5420330.478 20346490.563 14391920.322 10 0 60975 55800.00000 0 4431917.759 18691255.693 16783459.618 10 0 60975 56700.00000 0 3150004.451 16902151.414 18849033.494 10 0 60975 57600.00000 0 1580740.874 15044620.373 20548714.347 10 0 60975 58500.00000 0 -256843.924 13183444.817 21849709.156 10 0 60975 59400.00000 0 -2331397.053 11380107.505 22726978.091 10 0 60975 60300.00000 0 -4600316.049 9690313.915 23163701.913 10 0 60975 61200.00000 0 -7011297.670 8161777.847 23151590.746 10 0 60975 62100.00000 0 -9504297.068 6832360.903 22691029.787 10 0 60975 63000.00000 0 -12013816.606 5728641.332 21791060.370 10 0 60975 63900.00000 0 -14471430.276 4864969.784 20469197.627 10 0 60975 64800.00000 0 -16808440.300 4243049.316 18751088.670 10 0 60975 65700.00000 0 -18958557.208 3852055.464 16670017.874 10 0 60975 66600.00000 0 -20860493.668 3669290.075 14266268.355 10 0 60975 67500.00000 0 -22460365.829 3661340.694 11586351.217 10 0 60975 68400.00000 0 -23713803.634 3785696.585 8682116.395 10 0 60975 69300.00000 0 -24587683.160 3992753.601 5609761.186 10 0 60975 70200.00000 0 -25061409.403 4228123.979 2428754.464 10 0 60975 71100.00000 0 -25127696.099 4435154.354 -799303.697 10 0 60975 72000.00000 0 -24792809.783 4557546.331 -4011865.751 10 0 60975 72900.00000 0 -24076267.258 4541969.430 -7146641.580 10 0 60975 73800.00000 0 -23009998.311 4340556.107 -10142801.662 10 0 60975 74700.00000 0 -21637007.707 3913173.139 -12942155.393 10 0 60975 75600.00000 0 -20009591.435 3229372.625 -15490281.755 10 0 60975 76500.00000 0 -18187180.931 2269938.908 -17737590.248 10 0 60975 77400.00000 0 -16233904.681 1027964.396 -19640291.160 10 0 60975 78300.00000 0 -14215968.665 -490593.229 -21161255.916 10 0 60975 79200.00000 0 -12198964.864 -2266898.338 -22270750.246 10 0 60975 80100.00000 0 -10245220.342 -4269772.301 -22947025.238 10 0 60975 81000.00000 0 -8411297.923 -6456756.144 -23176753.998 10 0 60975 81900.00000 0 -6745753.305 -8775658.691 -22955304.580 10 0 60975 82800.00000 0 -5287242.962 -11166527.239 -22286842.907 10 0 60975 83700.00000 0 -4063062.458 -13563959.779 -21184262.728 10 0 60975 84600.00000 0 -3088176.831 -15899662.868 -19668943.066 10 0 60975 85500.00000 0 -2364783.900 -18105148.425 -17770337.064 99